TimeEST,TemperatureF,Dew PointF,Humidity,Sea Level PressureIn,VisibilityMPH,Wind Direction,Wind SpeedMPH,Gust SpeedMPH,PrecipitationIn,Events,Conditions,WindDirDegrees,DateUTC
12:15 AM,23.4,11.8,61,30.09,10.0,NNW,11.5,17.3,N/A,,Overcast,340,2013-11-27 05:15:00
12:35 AM,23.4,11.5,60,30.08,10.0,North,12.7,17.3,N/A,,Overcast,350,2013-11-27 05:35:00
12:55 AM,23.4,12.7,64,30.07,10.0,North,8.1,-,N/A,,Overcast,350,2013-11-27 05:55:00
1:15 AM,23.4,11.3,60,30.07,10.0,North,11.5,18.4,N/A,,Overcast,350,2013-11-27 06:15:00
1:35 AM,23.4,11.1,60,30.06,10.0,North,10.4,-,N/A,,Overcast,350,2013-11-27 06:35:00
1:55 AM,23.5,10.9,59,30.06,10.0,North,9.2,16.1,N/A,,Overcast,360,2013-11-27 06:55:00
2:15 AM,23.5,14.7,69,30.06,4.0,North,12.7,20.7,N/A,Snow,Light Snow,350,2013-11-27 07:15:00
2:35 AM,23.4,18.1,80,30.06,0.8,NNW,13.8,21.9,N/A,Snow,Snow,340,2013-11-27 07:35:00
2:55 AM,23.4,16.5,75,30.06,10.0,North,13.8,19.6,N/A,Snow,Light Snow,350,2013-11-27 07:55:00
3:15 AM,23.5,15.4,71,30.06,10.0,North,12.7,19.6,N/A,Snow,Light Snow,350,2013-11-27 08:15:00
3:35 AM,23.5,15.4,71,30.06,7.0,North,11.5,17.3,N/A,Snow,Light Snow,350,2013-11-27 08:35:00
3:55 AM,23.4,16.5,75,30.05,3.0,NNW,11.5,17.3,N/A,Snow,Light Snow,340,2013-11-27 08:55:00
4:15 AM,23.7,16.7,75,30.05,3.0,North,12.7,18.4,N/A,Snow,Light Snow,350,2013-11-27 09:15:00
4:35 AM,23.4,16.5,75,30.05,4.0,North,8.1,-,N/A,Snow,Light Snow,350,2013-11-27 09:35:00
4:55 AM,24.3,16.7,73,30.05,3.0,NNW,9.2,21.9,N/A,Snow,Light Snow,340,2013-11-27 09:55:00
5:15 AM,24.6,16.2,70,30.05,5.0,North,9.2,23.0,N/A,Snow,Light Snow,360,2013-11-27 10:15:00
5:35 AM,25.7,15.3,65,30.05,10.0,North,12.7,17.3,N/A,,Overcast,350,2013-11-27 10:35:00
5:55 AM,25.7,14.5,63,30.05,10.0,North,15.0,18.4,N/A,,Overcast,350,2013-11-27 10:55:00
6:15 AM,25.7,16.9,69,30.05,10.0,NNW,11.5,18.4,N/A,Snow,Light Snow,340,2013-11-27 11:15:00
6:35 AM,25.5,19.8,79,30.06,2.0,NNW,15.0,19.6,N/A,Snow,Light Snow,330,2013-11-27 11:35:00
6:55 AM,24.6,20.5,84,30.05,1.2,NNW,10.4,24.2,N/A,Snow,Light Snow,340,2013-11-27 11:55:00
7:15 AM,25.5,19.8,79,30.06,5.0,North,8.1,-,N/A,Snow,Light Snow,360,2013-11-27 12:15:00
7:35 AM,25.7,16.9,69,30.07,10.0,North,16.1,23.0,N/A,Snow,Light Snow,350,2013-11-27 12:35:00
7:55 AM,25.7,18.7,75,30.07,5.0,North,6.9,18.4,N/A,Snow,Light Snow,10,2013-11-27 12:55:00
8:15 AM,25.7,19.9,79,30.07,5.0,North,10.4,-,N/A,Snow,Light Snow,360,2013-11-27 13:15:00
8:35 AM,25.7,18.9,75,30.08,10.0,North,8.1,-,N/A,,Mostly Cloudy,360,2013-11-27 13:35:00
8:55 AM,24.8,19.9,82,30.09,0.8,NNE,4.6,16.1,N/A,Snow,Light Snow,30,2013-11-27 13:55:00
9:15 AM,25.2,20.3,82,30.09,4.0,NNE,9.2,-,N/A,Snow,Light Snow,20,2013-11-27 14:15:00
9:35 AM,24.6,19.2,80,30.10,0.8,NE,8.1,-,N/A,Snow,Light Snow,40,2013-11-27 14:35:00
9:54 AM,24.6,19.0,79,30.10,2.0,North,6.9,-,N/A,Snow,Light Snow,10,2013-11-27 14:54:00
10:15 AM,23.9,19.8,84,30.10,0.5,NE,5.8,-,N/A,Snow,Light Snow,40,2013-11-27 15:15:00
10:35 AM,24.3,19.2,81,30.10,5.0,NNE,5.8,-,N/A,Snow,Light Snow,30,2013-11-27 15:35:00
10:54 AM,23.9,19.0,82,30.10,1.0,NNE,5.8,-,N/A,Snow,Light Snow,30,2013-11-27 15:54:00
11:15 AM,24.3,19.4,82,30.10,0.2,NE,6.9,-,N/A,Snow,Snow,40,2013-11-27 16:15:00
11:35 AM,24.6,20.1,83,30.10,0.8,North,5.8,-,N/A,Snow,Light Snow,360,2013-11-27 16:35:00
11:55 AM,24.3,19.4,82,30.10,1.5,North,8.1,-,N/A,Snow,Light Snow,360,2013-11-27 16:55:00
12:15 PM,24.1,19.8,84,30.09,0.5,NNE,6.9,-,N/A,Snow,Snow,20,2013-11-27 17:15:00
12:34 PM,25.5,21.0,83,30.09,1.2,North,6.9,-,N/A,Snow,Light Snow,10,2013-11-27 17:34:00
12:55 PM,24.6,19.9,82,30.09,1.2,North,5.8,-,N/A,Snow,Light Snow,10,2013-11-27 17:55:00
1:15 PM,25.7,21.9,86,30.09,0.5,NE,4.6,-,N/A,Snow,Light Snow,40,2013-11-27 18:15:00
1:34 PM,25.7,21.9,86,30.09,0.8,NNE,6.9,-,N/A,Snow,Light Snow,20,2013-11-27 18:34:00
1:55 PM,25.2,20.7,83,30.09,2.5,NNE,8.1,-,N/A,Snow,Light Snow,20,2013-11-27 18:55:00
2:15 PM,24.6,20.3,84,30.09,0.2,NNE,11.5,16.1,N/A,Snow,Snow,30,2013-11-27 19:15:00
2:34 PM,24.3,19.4,82,30.10,3.0,NNE,9.2,-,N/A,Snow,Light Snow,20,2013-11-27 19:34:00
2:55 PM,23.9,19.4,83,30.10,0.5,NNE,6.9,-,N/A,Snow,Light Snow,20,2013-11-27 19:55:00
3:15 PM,23.9,19.0,82,30.10,1.2,North,3.5,-,N/A,Snow,Light Snow,10,2013-11-27 20:15:00
3:35 PM,23.9,19.4,83,30.10,0.8,NE,6.9,-,N/A,Snow,Light Snow,40,2013-11-27 20:35:00
3:55 PM,23.9,19.4,83,30.12,0.8,NNE,3.5,-,N/A,Snow,Light Snow,20,2013-11-27 20:55:00
4:15 PM,23.4,19.8,86,30.12,0.5,NE,4.6,-,N/A,Snow,Light Snow,40,2013-11-27 21:15:00
4:35 PM,23.4,19.2,84,30.13,4.0,North,3.5,-,N/A,Snow,Light Snow,10,2013-11-27 21:35:00
4:55 PM,23.4,19.4,85,30.13,1.0,Calm,Calm,-,N/A,Snow,Light Snow,0,2013-11-27 21:55:00
5:15 PM,23.0,19.2,85,30.14,1.8,ENE,4.6,-,N/A,Snow,Light Snow,70,2013-11-27 22:15:00
5:35 PM,23.4,19.8,86,30.14,5.0,Calm,Calm,-,N/A,Snow,Light Snow,0,2013-11-27 22:35:00
5:55 PM,23.4,19.8,86,30.15,10.0,Calm,Calm,-,N/A,Snow,Light Snow,0,2013-11-27 22:55:00
6:15 PM,23.0,19.4,86,30.15,7.0,Calm,Calm,-,N/A,Snow,Light Snow,0,2013-11-27 23:15:00
6:35 PM,22.5,18.7,85,30.15,10.0,Calm,Calm,-,N/A,,Overcast,0,2013-11-27 23:35:00
6:55 PM,22.3,18.7,86,30.16,7.0,Calm,Calm,-,N/A,Snow,Light Snow,0,2013-11-27 23:55:00
7:14 PM,23.4,19.8,86,30.16,4.0,Calm,Calm,-,N/A,Snow,Light Snow,0,2013-11-28 00:14:00
7:35 PM,23.4,19.8,86,30.17,2.5,Calm,Calm,-,N/A,Snow,Light Snow,0,2013-11-28 00:35:00
7:55 PM,23.4,19.9,87,30.17,5.0,East,4.6,-,N/A,Snow,Light Snow,90,2013-11-28 00:55:00
8:15 PM,23.2,19.8,87,30.17,7.0,SE,3.5,-,N/A,Snow,Light Snow,140,2013-11-28 01:15:00
8:35 PM,23.4,19.9,87,30.17,1.2,Calm,Calm,-,N/A,Snow,Snow,0,2013-11-28 01:35:00
8:55 PM,23.4,20.1,87,30.16,2.0,Calm,Calm,-,N/A,Snow,Light Snow,0,2013-11-28 01:55:00
9:15 PM,23.4,20.1,87,30.16,4.0,ESE,3.5,-,N/A,Snow,Light Snow,120,2013-11-28 02:15:00
9:35 PM,23.4,20.1,87,30.17,7.0,Calm,Calm,-,N/A,Snow,Light Snow,0,2013-11-28 02:35:00
9:55 PM,23.4,19.9,87,30.17,1.5,Calm,Calm,-,N/A,Snow,Light Snow,0,2013-11-28 02:55:00
10:15 PM,23.2,19.8,87,30.17,5.0,Calm,Calm,-,N/A,Snow,Light Snow,0,2013-11-28 03:15:00
10:35 PM,23.4,19.9,87,30.17,3.0,Calm,Calm,-,N/A,Snow,Light Snow,0,2013-11-28 03:35:00
10:55 PM,23.4,19.9,87,30.18,5.0,Calm,Calm,-,N/A,Snow,Light Snow,0,2013-11-28 03:55:00
11:15 PM,23.4,19.9,87,30.18,1.8,Calm,Calm,-,N/A,Snow,Light Snow,0,2013-11-28 04:15:00
11:34 PM,23.4,19.9,87,30.19,1.2,Calm,Calm,-,N/A,Snow,Snow,0,2013-11-28 04:34:00
11:55 PM,23.4,20.1,87,30.20,1.5,Calm,Calm,-,N/A,Snow,Light Snow,0,2013-11-28 04:55:00